QPF
0.00 0.00 0.00 0.00 0.00 0.00 0.00 0.00 0.00 0.00 0.01 0.02 0.01 0.01 0.02 0.02 0.02 0.02 0.02 0.02 0.01 0.01 0.01 0.01 0.01 0.02 0.01 0.01 0.02 0.02 0.03 0.05 0.05 0.05 0.05 0.04 0.03 0.03 0.04 0.03 0.03 0.03 0.04 0.04
0.00 0.00 0.00 0.00 0.00 0.00 0.00 0.00 0.00 0.00 0.01 0.02 0.01 0.00 0.01 0.01 0.00 0.00 0.00 0.01 0.01 0.01 0.01 0.01 0.01 0.01 0.01 0.01 0.01 0.02 0.03 0.04 0.05 0.05 0.05 0.05 0.04 0.04 0.05 0.04 0.03 0.04 0.03 0.04
0.00 0.00 0.00 0.01 0.01 0.00 0.00 0.00 0.00 0.00 0.00 0.00 0.00 0.00 0.00 0.00 0.00 0.00 0.00 0.00 0.01 0.01 0.01 0.01 0.01 0.01 0.02 0.01 0.01 0.02 0.02 0.02 0.04 0.03 0.04 0.04 0.04 0.04 0.04 0.03 0.03 0.03 0.03 0.03
0.00 0.00 0.01 0.01 0.00 0.00 0.00 0.00 0.00 0.00 0.00 0.00 0.00 0.00 0.00 0.00 0.01 0.00 0.01 0.01 0.01 0.01 0.01 0.01 0.01 0.02 0.02 0.02 0.02 0.03 0.03 0.03 0.03 0.04 0.05 0.06 0.07 0.06 0.04 0.03 0.03 0.03 0.03 0.03
0.00 0.00 0.00 0.00 0.00 0.00 0.00 0.00 0.00 0.00 0.00 0.00 0.00 0.01 0.01 0.00 0.01 0.01 0.02 0.02 0.03 0.02 0.02 0.02 0.02 0.01 0.02 0.02 0.03 0.03 0.03 0.03 0.03 0.04 0.06 0.08 0.09 0.06 0.04 0.03 0.03 0.02 0.02 0.02
0.00 0.01 0.01 0.01 0.00 0.00 0.00 0.00 0.00 0.00 0.00 0.00 0.01 0.02 0.02 0.02 0.01 0.02 0.03 0.03 0.03 0.04 0.03 0.02 0.02 0.02 0.03 0.03 0.03 0.04 0.03 0.03 0.03 0.04 0.05 0.05 0.06 0.04 0.03 0.03 0.03 0.02 0.02 0.02
0.00 0.01 0.02 0.01 0.00 0.00 0.00 0.01 0.01 0.01 0.00 0.00 0.02 0.02 0.03 0.02 0.01 0.02 0.03 0.03 0.03 0.03 0.03 0.02 0.02 0.02 0.02 0.02 0.02 0.02 0.03 0.03 0.02 0.03 0.04 0.04 0.04 0.04 0.03 0.03 0.02 0.02 0.03 0.03
0.01 0.02 0.01 0.01 0.00 0.01 0.01 0.00 0.00 0.00 0.00 0.00 0.01 0.02 0.02 0.02 0.02 0.03 0.03 0.02 0.02 0.01 0.01 0.01 0.01 0.01 0.02 0.02 0.02 0.02 0.02 0.02 0.02 0.03 0.02 0.03 0.04 0.03 0.03 0.03 0.03 0.03 0.04 0.04
0.01 0.02 0.01 0.00 0.00 0.00 0.00 0.00 0.00 0.00 0.00 0.01 0.01 0.02 0.02 0.02 0.02 0.02 0.02 0.02 0.01 0.01 0.01 0.01 0.01 0.01 0.02 0.03 0.02 0.03 0.04 0.04 0.04 0.03 0.03 0.03 0.04 0.03 0.03 0.03 0.03 0.03 0.03 0.03
0.01 0.01 0.00 0.00 0.00 0.00 0.00 0.00 0.00 0.00 0.00 0.01 0.02 0.02 0.03 0.02 0.02 0.01 0.02 0.02 0.01 0.01 0.01 0.01 0.01 0.00 0.01 0.01 0.02 0.03 0.04 0.05 0.06 0.06 0.05 0.05 0.06 0.06 0.05 0.03 0.02 0.02 0.02 0.02
0.01 0.01 0.00 0.00 0.00 0.00 0.00 0.00 0.00 0.00 0.01 0.01 0.02 0.02 0.03 0.02 0.02 0.02 0.02 0.02 0.01 0.01 0.01 0.01 0.01 0.01 0.01 0.01 0.01 0.02 0.02 0.02 0.03 0.03 0.04 0.04 0.04 0.05 0.06 0.06 0.04 0.02 0.02 0.02
0.02 0.02 0.02 0.01 0.01 0.01 0.01 0.01 0.01 0.01 0.01 0.01 0.02 0.03 0.03 0.02 0.02 0.02 0.02 0.02 0.01 0.01 0.01 0.01 0.00 0.01 0.01 0.01 0.01 0.01 0.01 0.01 0.01 0.02 0.02 0.02 0.03 0.04 0.04 0.03 0.02 0.02 0.02 0.02
0.02 0.02 0.01 0.01 0.01 0.01 0.01 0.01 0.00 0.01 0.01 0.03 0.03 0.03 0.03 0.02 0.02 0.02 0.02 0.02 0.02 0.02 0.01 0.01 0.01 0.01 0.01 0.01 0.01 0.01 0.01 0.01 0.01 0.01 0.02 0.02 0.02 0.02 0.02 0.02 0.02 0.02 0.02 0.02
0.01 0.02 0.02 0.02 0.02 0.01 0.01 0.01 0.01 0.01 0.02 0.03 0.04 0.04 0.04 0.02 0.03 0.03 0.02 0.02 0.02 0.02 0.02 0.02 0.01 0.01 0.01 0.01 0.01 0.01 0.00 0.01 0.01 0.02 0.03 0.03 0.03 0.03 0.02 0.02 0.01 0.01 0.01 0.02
0.01 0.02 0.02 0.03 0.03 0.03 0.01 0.01 0.02 0.02 0.04 0.06 0.06 0.04 0.03 0.04 0.05 0.03 0.01 0.01 0.01 0.01 0.02 0.02 0.02 0.02 0.01 0.01 0.01 0.01 0.01 0.01 0.01 0.01 0.02 0.02 0.02 0.01 0.01 0.02 0.02 0.01 0.01 0.01
0.02 0.01 0.01 0.04 0.05 0.04 0.03 0.03 0.04 0.04 0.07 0.07 0.06 0.04 0.04 0.03 0.02 0.01 0.01 0.01 0.01 0.02 0.02 0.02 0.02 0.01 0.01 0.01 0.01 0.01 0.01 0.01 0.01 0.01 0.01 0.01 0.01 0.02 0.02 0.01 0.02 0.02 0.02 0.02
0.02 0.02 0.02 0.02 0.02 0.03 0.03 0.03 0.04 0.03 0.03 0.03 0.02 0.02 0.06 0.06 0.03 0.03 0.02 0.01 0.02 0.02 0.02 0.01 0.01 0.01 0.01 0.01 0.01 0.01 0.01 0.01 0.02 0.01 0.01 0.02 0.02 0.02 0.02 0.02 0.02 0.02 0.02 0.03
0.01 0.01 0.01 0.01 0.01 0.01 0.02 0.02 0.03 0.02 0.02 0.02 0.02 0.02 0.04 0.08 0.06 0.04 0.03 0.02 0.02 0.02 0.02 0.02 0.01 0.01 0.01 0.01 0.02 0.02 0.03 0.03 0.03 0.03 0.03 0.04 0.04 0.03 0.03 0.02 0.02 0.02 0.02 0.02
0.01 0.01 0.01 0.01 0.01 0.01 0.02 0.02 0.02 0.02 0.02 0.02 0.02 0.03 0.03 0.03 0.04 0.07 0.08 0.04 0.03 0.03 0.03 0.02 0.01 0.00 0.01 0.01 0.01 0.02 0.03 0.03 0.04 0.04 0.05 0.06 0.06 0.07 0.06 0.04 0.04 0.03 0.03 0.03
0.00 0.01 0.01 0.01 0.02 0.02 0.02 0.01 0.01 0.02 0.02 0.02 0.02 0.03 0.03 0.02 0.02 0.02 0.04 0.05 0.04 0.03 0.03 0.02 0.01 0.01 0.01 0.01 0.01 0.01 0.02 0.02 0.02 0.03 0.04 0.05 0.06 0.07 0.07 0.06 0.05 0.04 0.05 0.06
0.01 0.01 0.01 0.02 0.02 0.01 0.01 0.01 0.01 0.01 0.01 0.01 0.02 0.02 0.03 0.02 0.02 0.02 0.02 0.03 0.04 0.04 0.03 0.02 0.01 0.01 0.00 0.00 0.01 0.01 0.01 0.01 0.02 0.03 0.03 0.03 0.04 0.06 0.05 0.04 0.03 0.03 0.04 0.04
0.01 0.01 0.01 0.01 0.01 0.01 0.01 0.01 0.00 0.00 0.01 0.00 0.01 0.02 0.02 0.02 0.02 0.02 0.02 0.02 0.02 0.01 0.01 0.02 0.02 0.01 0.01 0.01 0.01 0.02 0.02 0.02 0.02 0.02 0.02 0.02 0.03 0.03 0.02 0.02 0.02 0.02 0.01 0.01
0.02 0.03 0.02 0.01 0.01 0.01 0.00 0.00 0.00 0.00 0.00 0.00 0.01 0.02 0.02 0.01 0.01 0.01 0.01 0.01 0.01 0.01 0.01 0.01 0.01 0.01 0.01 0.01 0.02 0.03 0.03 0.03 0.02 0.02 0.01 0.01 0.01 0.01 0.01 0.01 0.02 0.02 0.02 0.02
0.02 0.02 0.02 0.01 0.00 0.00 0.00 0.00 0.00 0.00 0.00 0.00 0.01 0.01 0.02 0.02 0.02 0.01 0.01 0.00 0.01 0.01 0.01 0.01 0.01 0.01 0.02 0.02 0.02 0.02 0.02 0.02 0.03 0.04 0.03 0.02 0.02 0.02 0.02 0.02 0.03 0.03 0.03 0.04
0.02 0.02 0.01 0.01 0.01 0.01 0.01 0.01 0.00 0.00 0.00 0.00 0.01 0.01 0.02 0.02 0.01 0.01 0.01 0.01 0.01 0.01 0.01 0.01 0.01 0.01 0.01 0.01 0.01 0.02 0.02 0.02 0.02 0.03 0.05 0.05 0.03 0.03 0.04 0.04 0.04 0.05 0.07 0.06
0.03 0.03 0.03 0.03 0.02 0.02 0.02 0.01 0.01 0.01 0.01 0.01 0.01 0.01 0.01 0.01 0.01 0.00 0.01 0.01 0.01 0.01 0.01 0.01 0.01 0.01 0.01 0.01 0.01 0.01 0.01 0.02 0.02 0.02 0.03 0.04 0.04 0.05 0.06 0.06 0.05 0.05 0.06 0.05
0.02 0.04 0.04 0.03 0.01 0.01 0.02 0.01 0.01 0.02 0.02 0.02 0.02 0.01 0.01 0.01 0.01 0.01 0.01 0.01 0.01 0.01 0.02 0.02 0.02 0.02 0.02 0.02 0.02 0.02 0.02 0.03 0.03 0.03 0.03 0.04 0.05 0.06 0.05 0.04 0.04 0.03 0.04 0.04
MSLP
1002.85 1003.19 1003.49 1003.76 1004.00 1004.22 1004.38 1004.49 1004.53 1004.50 1004.41 1004.30 1004.20 1004.18 1004.27 1004.49 1004.86 1005.36 1005.94 1006.55 1007.12 1007.60 1007.95 1008.14 1008.19 1008.10 1007.93 1007.72 1007.51 1007.35 1007.23 1007.18 1007.16 1007.17 1007.18 1007.16 1007.10 1007.01 1006.88 1006.75 1006.62 1006.53 1006.48 1006.48
1003.22 1003.55 1003.76 1003.88 1003.93 1003.92 1003.88 1003.82 1003.76 1003.70 1003.67 1003.67 1003.75 1003.91 1004.18 1004.54 1005.00 1005.53 1006.09 1006.64 1007.13 1007.52 1007.79 1007.94 1007.96 1007.89 1007.75 1007.58 1007.42 1007.28 1007.17 1007.11 1007.06 1007.03 1007.00 1006.95 1006.88 1006.79 1006.69 1006.59 1006.51 1006.46 1006.45 1006.47
1003.67 1004.00 1004.15 1004.16 1004.04 1003.86 1003.65 1003.45 1003.29 1003.21 1003.22 1003.32 1003.53 1003.84 1004.24 1004.71 1005.22 1005.75 1006.27 1006.75 1007.14 1007.45 1007.66 1007.76 1007.78 1007.74 1007.64 1007.52 1007.40 1007.29 1007.19 1007.10 1007.02 1006.93 1006.84 1006.75 1006.65 1006.55 1006.47 1006.41 1006.38 1006.37 1006.39 1006.43
1004.15 1004.49 1004.61 1004.54 1004.32 1004.01 1003.67 1003.38 1003.16 1003.06 1003.10 1003.27 1003.58 1003.99 1004.48 1005.00 1005.54 1006.05 1006.51 1006.91 1007.22 1007.44 1007.59 1007.67 1007.69 1007.68 1007.63 1007.56 1007.48 1007.39 1007.28 1007.16 1007.02 1006.86 1006.70 1006.54 1006.40 1006.29 1006.21 1006.18 1006.19 1006.23 1006.28 1006.33
1004.57 1004.92 1005.03 1004.93 1004.66 1004.28 1003.88 1003.53 1003.29 1003.19 1003.26 1003.49 1003.86 1004.34 1004.87 1005.42 1005.95 1006.42 1006.81 1007.12 1007.35 1007.50 1007.60 1007.66 1007.69 1007.70 1007.69 1007.67 1007.61 1007.53 1007.40 1007.23 1007.03 1006.79 1006.55 1006.31 1006.12 1005.98 1005.90 1005.88 1005.93 1006.00 1006.09 1006.15
1004.87 1005.23 1005.35 1005.24 1004.96 1004.57 1004.17 1003.82 1003.58 1003.51 1003.61 1003.88 1004.30 1004.80 1005.35 1005.90 1006.39 1006.80 1007.12 1007.35 1007.50 1007.59 1007.64 1007.68 1007.71 1007.74 1007.76 1007.77 1007.73 1007.64 1007.48 1007.26 1006.99 1006.67 1006.34 1006.04 1005.79 1005.61 1005.53 1005.53 1005.60 1005.71 1005.83 1005.92
1005.01 1005.36 1005.48 1005.40 1005.14 1004.79 1004.43 1004.11 1003.92 1003.89 1004.04 1004.34 1004.78 1005.30 1005.84 1006.35 1006.80 1007.15 1007.39 1007.54 1007.62 1007.65 1007.66 1007.67 1007.70 1007.74 1007.77 1007.79 1007.75 1007.65 1007.46 1007.19 1006.85 1006.46 1006.06 1005.69 1005.40 1005.20 1005.11 1005.12 1005.22 1005.38 1005.54 1005.66
1004.98 1005.30 1005.43 1005.37 1005.17 1004.88 1004.59 1004.35 1004.23 1004.26 1004.44 1004.78 1005.23 1005.74 1006.25 1006.72 1007.11 1007.39 1007.56 1007.64 1007.65 1007.63 1007.60 1007.59 1007.60 1007.63 1007.67 1007.68 1007.63 1007.51 1007.29 1006.98 1006.58 1006.14 1005.69 1005.28 1004.96 1004.74 1004.65 1004.69 1004.83 1005.03 1005.24 1005.41
1004.80 1005.07 1005.20 1005.18 1005.04 1004.84 1004.64 1004.49 1004.45 1004.54 1004.78 1005.13 1005.58 1006.07 1006.54 1006.96 1007.28 1007.50 1007.61 1007.62 1007.58 1007.51 1007.44 1007.40 1007.39 1007.40 1007.43 1007.42 1007.36 1007.21 1006.97 1006.62 1006.20 1005.72 1005.24 1004.81 1004.47 1004.26 1004.19 1004.25 1004.43 1004.68 1004.95 1005.20
1004.51 1004.74 1004.86 1004.87 1004.81 1004.70 1004.60 1004.55 1004.60 1004.76 1005.03 1005.40 1005.84 1006.30 1006.72 1007.08 1007.35 1007.50 1007.55 1007.52 1007.43 1007.32 1007.21 1007.14 1007.10 1007.09 1007.08 1007.05 1006.96 1006.79 1006.52 1006.16 1005.71 1005.23 1004.74 1004.31 1003.98 1003.77 1003.72 1003.82 1004.04 1004.35 1004.69 1005.03
1004.18 1004.36 1004.49 1004.54 1004.55 1004.54 1004.54 1004.59 1004.72 1004.94 1005.25 1005.62 1006.04 1006.46 1006.84 1007.14 1007.35 1007.45 1007.46 1007.38 1007.26 1007.11 1006.98 1006.87 1006.79 1006.74 1006.70 1006.63 1006.50 1006.30 1006.01 1005.63 1005.18 1004.69 1004.21 1003.79 1003.47 1003.29 1003.26 1003.39 1003.65 1004.01 1004.43 1004.85
1003.88 1004.03 1004.17 1004.27 1004.36 1004.44 1004.55 1004.69 1004.89 1005.16 1005.49 1005.87 1006.26 1006.63 1006.96 1007.22 1007.37 1007.43 1007.40 1007.29 1007.14 1006.96 1006.80 1006.65 1006.53 1006.43 1006.33 1006.21 1006.04 1005.80 1005.48 1005.08 1004.63 1004.14 1003.68 1003.27 1002.97 1002.81 1002.80 1002.95 1003.25 1003.66 1004.13 1004.63
1003.66 1003.81 1003.97 1004.14 1004.30 1004.48 1004.67 1004.90 1005.17 1005.48 1005.83 1006.19 1006.55 1006.89 1007.17 1007.37 1007.48 1007.50 1007.43 1007.30 1007.12 1006.92 1006.71 1006.52 1006.35 1006.19 1006.02 1005.83 1005.60 1005.31 1004.95 1004.54 1004.07 1003.60 1003.15 1002.76 1002.47 1002.33 1002.34 1002.51 1002.82 1003.26 1003.78 1004.34
1003.56 1003.73 1003.94 1004.17 1004.42 1004.68 1004.96 1005.26 1005.59 1005.93 1006.28 1006.64 1006.97 1007.26 1007.49 1007.64 1007.71 1007.69 1007.59 1007.43 1007.22 1006.98 1006.73 1006.48 1006.24 1006.00 1005.76 1005.49 1005.19 1004.84 1004.44 1003.99 1003.52 1003.05 1002.61 1002.24 1001.98 1001.85 1001.87 1002.05 1002.37 1002.82 1003.36 1003.96
1003.60 1003.81 1004.07 1004.37 1004.70 1005.04 1005.40 1005.77 1006.14 1006.51 1006.86 1007.20 1007.49 1007.74 1007.92 1008.02 1008.05 1007.99 1007.85 1007.65 1007.40 1007.11 1006.80 1006.48 1006.16 1005.83 1005.50 1005.14 1004.76 1004.35 1003.90 1003.43 1002.96 1002.50 1002.08 1001.74 1001.50 1001.39 1001.43 1001.61 1001.93 1002.38 1002.92 1003.53
1003.78 1004.04 1004.36 1004.73 1005.13 1005.55 1005.97 1006.39 1006.79 1007.17 1007.52 1007.83 1008.10 1008.29 1008.42 1008.47 1008.45 1008.34 1008.15 1007.90 1007.59 1007.24 1006.85 1006.45 1006.04 1005.61 1005.18 1004.74 1004.28 1003.81 1003.33 1002.85 1002.38 1001.94 1001.56 1001.26 1001.06 1000.98 1001.04 1001.23 1001.56 1002.00 1002.53 1003.13
1004.09 1004.40 1004.78 1005.21 1005.67 1006.15 1006.61 1007.06 1007.49 1007.87 1008.21 1008.49 1008.71 1008.85 1008.93 1008.92 1008.83 1008.66 1008.42 1008.10 1007.71 1007.29 1006.82 1006.33 1005.81 1005.29 1004.77 1004.24 1003.72 1003.21 1002.71 1002.24 1001.80 1001.41 1001.09 1000.85 1000.71 1000.69 1000.78 1001.00 1001.32 1001.75 1002.27 1002.83
1004.51 1004.88 1005.31 1005.78 1006.28 1006.79 1007.28 1007.74 1008.16 1008.53 1008.84 1009.09 1009.26 1009.35 1009.36 1009.29 1009.14 1008.90 1008.58 1008.19 1007.73 1007.21 1006.66 1006.07 1005.47 1004.86 1004.26 1003.68 1003.12 1002.59 1002.10 1001.66 1001.28 1000.96 1000.73 1000.58 1000.52 1000.57 1000.71 1000.96 1001.30 1001.72 1002.21 1002.74
1005.03 1005.43 1005.90 1006.40 1006.91 1007.43 1007.92 1008.37 1008.77 1009.11 1009.38 1009.58 1009.70 1009.73 1009.68 1009.54 1009.32 1009.01 1008.62 1008.15 1007.61 1007.02 1006.38 1005.72 1005.05 1004.38 1003.73 1003.11 1002.54 1002.03 1001.58 1001.20 1000.91 1000.69 1000.56 1000.51 1000.56 1000.69 1000.90 1001.19 1001.55 1001.96 1002.42 1002.90
1005.60 1006.04 1006.53 1007.03 1007.54 1008.03 1008.50 1008.91 1009.27 1009.56 1009.78 1009.93 1009.99 1009.97 1009.86 1009.66 1009.38 1009.01 1008.55 1008.02 1007.42 1006.76 1006.07 1005.35 1004.63 1003.93 1003.27 1002.65 1002.11 1001.64 1001.26 1000.97 1000.77 1000.67 1000.65 1000.72 1000.86 1001.08 1001.35 1001.68 1002.05 1002.45 1002.87 1003.31
1006.21 1006.67 1007.16 1007.65 1008.13 1008.58 1008.99 1009.35 1009.65 1009.88 1010.04 1010.13 1010.14 1010.07 1009.92 1009.68 1009.35 1008.94 1008.44 1007.87 1007.23 1006.54 1005.82 1005.08 1004.36 1003.66 1003.01 1002.43 1001.93 1001.53 1001.24 1001.04 1000.95 1000.95 1001.05 1001.21 1001.44 1001.73 1002.05 1002.39 1002.76 1003.14 1003.52 1003.89
1006.81 1007.29 1007.76 1008.22 1008.65 1009.04 1009.38 1009.67 1009.90 1010.07 1010.18 1010.21 1010.18 1010.07 1009.89 1009.63 1009.28 1008.86 1008.35 1007.77 1007.14 1006.45 1005.74 1005.02 1004.32 1003.65 1003.05 1002.53 1002.10 1001.78 1001.57 1001.47 1001.47 1001.56 1001.73 1001.97 1002.26 1002.58 1002.91 1003.26 1003.60 1003.93 1004.26 1004.57
1007.38 1007.85 1008.30 1008.71 1009.08 1009.39 1009.66 1009.87 1010.03 1010.14 1010.19 1010.19 1010.13 1010.01 1009.82 1009.56 1009.23 1008.82 1008.34 1007.80 1007.19 1006.55 1005.89 1005.22 1004.58 1003.97 1003.44 1002.99 1002.63 1002.39 1002.25 1002.22 1002.28 1002.43 1002.65 1002.92 1003.22 1003.54 1003.86 1004.17 1004.46 1004.73 1004.98 1005.22
1007.85 1008.31 1008.72 1009.08 1009.38 1009.62 1009.81 1009.95 1010.05 1010.10 1010.12 1010.10 1010.03 1009.91 1009.75 1009.52 1009.23 1008.87 1008.45 1007.96 1007.43 1006.86 1006.27 1005.68 1005.11 1004.59 1004.13 1003.76 1003.47 1003.29 1003.20 1003.21 1003.31 1003.47 1003.70 1003.95 1004.23 1004.51 1004.77 1005.02 1005.24 1005.43 1005.61 1005.77
1008.21 1008.64 1009.00 1009.30 1009.53 1009.70 1009.83 1009.91 1009.96 1009.98 1009.98 1009.95 1009.90 1009.81 1009.69 1009.51 1009.28 1008.99 1008.65 1008.25 1007.80 1007.32 1006.83 1006.33 1005.85 1005.41 1005.03 1004.72 1004.50 1004.36 1004.30 1004.33 1004.42 1004.57 1004.75 1004.97 1005.18 1005.39 1005.58 1005.74 1005.87 1005.99 1006.08 1006.17
1008.42 1008.80 1009.12 1009.35 1009.53 1009.64 1009.72 1009.76 1009.79 1009.80 1009.80 1009.79 1009.76 1009.72 1009.64 1009.53 1009.38 1009.17 1008.91 1008.60 1008.25 1007.86 1007.46 1007.05 1006.67 1006.31 1005.99 1005.75 1005.56 1005.45 1005.40 1005.42 1005.49 1005.59 1005.72 1005.87 1006.00 1006.12 1006.23 1006.30 1006.35 1006.39 1006.41 1006.44
1008.46 1008.80 1009.06 1009.25 1009.38 1009.47 1009.51 1009.54 1009.56 1009.58 1009.60 1009.62 1009.64 1009.64 1009.62 1009.57 1009.48 1009.35 1009.17 1008.94 1008.67 1008.37 1008.06 1007.73 1007.42 1007.13 1006.88 1006.68 1006.53 1006.43 1006.38 1006.38 1006.41 1006.47 1006.54 1006.61 1006.67 1006.72 1006.74 1006.74 1006.72 1006.69 1006.66 1006.64
Thickness
5808 5817 5817 5815 5817 5821 5817 5814 5802 5797 5795 5795 5798 5805 5806 5807 5804 5799 5794 5789 5785 5781 5777 5775 5772 5769 5766 5764 5762 5759 5755 5752 5748 5745 5743 5741 5738 5736 5734 5733 5732 5730 5727 5726
5795 5809 5813 5810 5816 5818 5817 5817 5811 5806 5795 5803 5808 5810 5805 5801 5797 5791 5786 5783 5779 5776 5772 5769 5766 5764 5761 5759 5756 5753 5749 5745 5742 5740 5737 5734 5732 5730 5728 5726 5725 5723 5721 5719
5779 5798 5799 5790 5808 5809 5810 5816 5812 5799 5799 5804 5799 5797 5796 5794 5791 5786 5782 5779 5774 5771 5768 5765 5762 5759 5756 5754 5751 5747 5743 5739 5737 5734 5731 5729 5727 5724 5721 5719 5717 5715 5713 5711
5776 5776 5760 5793 5820 5816 5808 5809 5812 5807 5806 5803 5796 5795 5795 5793 5786 5782 5778 5774 5770 5768 5764 5761 5758 5755 5752 5748 5744 5740 5736 5732 5731 5728 5724 5722 5720 5716 5714 5712 5710 5707 5705 5703
5767 5763 5770 5793 5808 5810 5799 5792 5806 5802 5800 5798 5795 5788 5783 5786 5784 5779 5775 5770 5767 5764 5760 5755 5751 5748 5744 5740 5736 5732 5729 5725 5723 5721 5718 5715 5712 5709 5708 5705 5702 5700 5698 5697
5762 5751 5750 5777 5804 5814 5799 5777 5796 5797 5792 5789 5783 5764 5762 5776 5776 5773 5769 5765 5760 5757 5753 5747 5744 5741 5736 5732 5728 5724 5722 5720 5718 5715 5712 5709 5706 5703 5701 5698 5696 5694 5692 5690
5755 5751 5760 5781 5798 5798 5766 5761 5786 5788 5785 5780 5769 5764 5766 5768 5765 5763 5760 5757 5753 5749 5743 5739 5736 5732 5727 5724 5720 5719 5717 5714 5711 5708 5706 5703 5700 5697 5695 5692 5690 5688 5686 5685
5751 5740 5743 5779 5783 5767 5764 5780 5783 5780 5776 5770 5766 5764 5762 5758 5755 5753 5750 5747 5744 5739 5734 5732 5729 5724 5718 5715 5714 5713 5710 5707 5704 5701 5700 5698 5694 5692 5690 5687 5684 5682 5679 5677
5751 5748 5762 5775 5772 5776 5778 5773 5775 5773 5771 5766 5761 5756 5753 5750 5746 5744 5742 5738 5736 5731 5726 5723 5721 5717 5711 5709 5708 5705 5702 5699 5697 5695 5693 5692 5689 5687 5685 5682 5679 5675 5672 5670
5751 5755 5764 5768 5772 5773 5773 5770 5771 5770 5766 5761 5753 5749 5745 5741 5737 5735 5733 5730 5727 5723 5717 5714 5712 5710 5706 5704 5702 5698 5694 5692 5690 5688 5686 5685 5683 5681 5678 5675 5671 5668 5666 5663
5743 5752 5757 5760 5763 5764 5765 5765 5763 5760 5758 5753 5747 5742 5738 5733 5729 5726 5724 5722 5719 5714 5709 5707 5705 5702 5701 5698 5695 5691 5688 5686 5685 5683 5681 5677 5674 5671 5669 5665 5664 5661 5660 5657
5735 5746 5745 5747 5756 5759 5754 5752 5752 5749 5747 5746 5742 5736 5732 5727 5723 5720 5717 5714 5710 5706 5703 5701 5698 5695 5693 5691 5688 5684 5681 5680 5679 5678 5675 5672 5668 5664 5661 5659 5656 5654 5652 5649
5745 5749 5749 5750 5751 5752 5749 5747 5746 5743 5740 5736 5733 5730 5725 5721 5717 5713 5710 5707 5703 5699 5697 5694 5691 5688 5686 5684 5681 5677 5674 5673 5673 5672 5669 5666 5663 5659 5655 5652 5649 5647 5645 5642
5743 5741 5737 5739 5740 5743 5742 5741 5740 5737 5734 5731 5727 5723 5719 5714 5709 5706 5702 5700 5697 5694 5690 5687 5684 5681 5680 5678 5674 5671 5669 5668 5666 5664 5662 5660 5657 5655 5652 5648 5645 5643 5639 5635
5735 5735 5733 5735 5735 5734 5734 5732 5728 5725 5723 5721 5719 5714 5710 5704 5700 5697 5696 5694 5690 5686 5683 5680 5676 5673 5673 5671 5667 5664 5663 5662 5660 5658 5656 5654 5652 5650 5648 5645 5642 5639 5635 5631
5727 5729 5728 5726 5725 5725 5724 5722 5718 5716 5714 5711 5709 5706 5703 5699 5694 5691 5688 5685 5680 5677 5674 5672 5668 5667 5665 5663 5660 5657 5655 5653 5652 5650 5649 5647 5645 5643 5640 5638 5635 5633 5630 5627
5715 5714 5716 5716 5717 5717 5716 5715 5713 5711 5708 5704 5701 5700 5696 5692 5686 5682 5679 5677 5673 5670 5668 5665 5662 5661 5658 5655 5652 5650 5649 5647 5644 5642 5640 5638 5637 5635 5632 5629 5627 5625 5623 5621
5716 5715 5715 5714 5712 5711 5710 5709 5708 5705 5702 5700 5697 5693 5688 5682 5677 5674 5671 5668 5666 5663 5661 5659 5656 5653 5651 5649 5645 5643 5641 5639 5637 5634 5632 5630 5628 5626 5624 5622 5620 5618 5616 5614
5712 5711 5711 5710 5709 5707 5704 5702 5701 5699 5696 5693 5689 5684 5680 5676 5672 5668 5664 5660 5657 5653 5652 5652 5648 5646 5644 5641 5637 5635 5634 5632 5629 5627 5625 5621 5620 5618 5616 5614 5612 5610 5609 5608
5705 5705 5703 5702 5702 5700 5697 5695 5693 5690 5688 5685 5681 5677 5672 5669 5666 5662 5658 5653 5651 5649 5647 5644 5641 5639 5637 5634 5629 5629 5627 5625 5622 5620 5617 5615 5613 5611 5609 5607 5605 5603 5602 5601
5696 5697 5695 5694 5693 5692 5691 5688 5685 5681 5679 5677 5672 5668 5664 5662 5659 5655 5651 5647 5646 5644 5640 5636 5634 5631 5628 5624 5621 5622 5620 5617 5615 5612 5610 5608 5605 5603 5602 5600 5598 5597 5595 5594
5687 5687 5686 5685 5684 5681 5681 5680 5677 5674 5671 5668 5665 5661 5657 5654 5652 5649 5646 5642 5640 5635 5633 5631 5628 5623 5619 5616 5617 5616 5613 5610 5607 5605 5603 5600 5598 5596 5595 5593 5591 5590 5588 5586
5677 5677 5676 5675 5674 5673 5673 5671 5669 5666 5662 5660 5657 5654 5651 5648 5647 5643 5639 5638 5635 5629 5626 5623 5618 5615 5612 5611 5610 5608 5605 5602 5600 5598 5596 5594 5592 5589 5588 5586 5584 5583 5581 5579
5667 5666 5665 5666 5666 5664 5662 5662 5661 5658 5656 5653 5651 5648 5646 5643 5640 5639 5635 5630 5626 5622 5620 5615 5611 5609 5606 5606 5603 5601 5598 5595 5593 5591 5589 5587 5586 5584 5581 5580 5578 5576 5574 5572
5658 5658 5658 5657 5655 5655 5655 5655 5653 5651 5649 5646 5644 5642 5641 5639 5635 5632 5629 5625 5620 5617 5614 5610 5606 5603 5602 5600 5597 5594 5591 5588 5586 5584 5581 5579 5577 5576 5574 5574 5571 5569 5567 5565
5650 5650 5651 5650 5651 5650 5651 5649 5647 5644 5642 5640 5638 5636 5635 5633 5630 5626 5622 5619 5616 5611 5609 5606 5603 5598 5597 5595 5591 5587 5584 5581 5580 5578 5576 5574 5572 5569 5568 5567 5566 5564 5561 5559
5643 5643 5643 5644 5646 5646 5646 5644 5641 5639 5637 5634 5631 5630 5628 5626 5623 5620 5616 5612 5609 5606 5603 5601 5598 5595 5593 5589 5586 5583 5580 5577 5575 5573 5571 5569 5566 5563 5562 5561 5559 5557 5555 5553